Regional Weather Roundup
Issued by NWS Little Rock, AR

Home | Current Version | Previous Version | Graphics & Text | Print | Product List | Glossary On
Versions: 1 2 3 4 5 6 7 8 9 10 11 12 13 14 15 16 17 18 19 20 21 22 23 24 25 26 27 28 29 30 31 32 33 34 35 36 37 38 39 40 41 42 43 44 45 46 47 48 49 50
000
ASUS44 KLZK 221405
RWRLZK

WEATHER ROUNDUP FOR ARKANSAS
NATIONAL WEATHER SERVICE LITTLE ROCK AR
800 AM CST MON JAN 22 2018

NOTE: "FAIR" INDICATES FEW OR NO CLOUDS BELOW 12,000 FEET WITH NO
SIGNIFICANT WEATHER AND/OR OBSTRUCTIONS TO VISIBILITY.

ARZ001-003-010-029-221500-
NORTHWEST ARKANSAS

CITY           SKY/WX    TMP DP  RH WIND       PRES   REMARKS
FAYETTEVILLE   CLEAR     37  30  75 SW13      29.72S
FORT SMITH     CLEAR     42  30  62 SW17      29.79R
HARRISON       CLEAR     43  28  55 SW10G23   29.69R
BENTONVILLE    CLEAR     37  29  72 SW14G21   29.71S
ROGERS         CLEAR     38  29  70 SW14G22   29.69F
SILOAM SPGS    CLEAR     37  29  72 SW17G23   29.71S
HIGHFILL       CLEAR     37  29  72 SW13      29.70
SPRINGDALE     CLEAR     37  28  70 SW13      29.72S
$$

ARZ004-005-016-221500-
NORTH CENTRAL ARKANSAS

CITY           SKY/WX    TMP DP  RH WIND       PRES   REMARKS
BATESVILLE     CLEAR     47  45  93 S3        29.75S
FLIPPIN        CLEAR     46  38  73 S6        29.69S
MTN HOME       CLEAR     45  41  86 SW6       29.67S
$$

ARZ040-041-221500-
WEST CENTRAL ARKANSAS

CITY           SKY/WX    TMP DP  RH WIND       PRES   REMARKS
MENA           CLEAR     45  30  57 W9G17     29.83R
MOUNT IDA      CLEAR     45  31  58 VRB5      29.79R
$$

ARZ009-017-025-026-028-221500-
NORTHEAST ARKANSAS

CITY           SKY/WX    TMP DP  RH WIND       PRES   REMARKS
JONESBORO      FAIR      50  47  89 SW10      29.75F
NEWPORT        FAIR      48  47  96 S15       29.76S
BLYTHEVILLE    FAIR      53  32  44 S12       29.77F
NW BLYTHEVILLE MOCLDY    52  46  82 S13       29.77
$$

ARZ022-023-033-042-044-221500-
CENTRAL ARKANSAS

CITY           SKY/WX    TMP DP  RH WIND       PRES   REMARKS
LITTLE ROCK    PTCLDY    50  45  83 SW10      29.80R
N LITTLE ROCK    N/A     49  46  88 SW7       29.73R
JACKSONVILLE   CLEAR     50  48  91 SW8       29.78R
SEARCY         FAIR      48  48 100 S6        29.78S
HOT SPRINGS    CLEAR     48  40  73 W9        29.81R
RUSSELLVILLE   CLEAR     46  31  55 W10       29.78R
CLINTON        FOG       37  37 100 CALM      29.76S VSB<1/4
$$

ARZ036-221500-
EAST ARKANSAS

CITY           SKY/WX    TMP DP  RH WIND       PRES   REMARKS
WEST MEMPHIS   CLOUDY    50  32  50 S9        29.80S
$$

ARZ050-053-066-070-073-221500-
SOUTHWEST ARKANSAS

CITY           SKY/WX    TMP DP  RH WIND       PRES   REMARKS
ARKADELPHIA    FAIR      45  40  82 SW6       29.86R
CAMDEN         FAIR      50  37  62 SW6       29.87R
TEXARKANA      CLEAR     47  30  51 W12       29.90R
EL DORADO      FAIR      49  46  90 CALM      29.89R
DE QUEEN       CLEAR     43  31  62 W13       29.87R
$$

ARZ056-057-069-221500-
SOUTHEAST ARKANSAS

CITY           SKY/WX    TMP DP  RH WIND       PRES   REMARKS
PINE BLUFF       N/A    N/A N/A N/A MISG      29.83S
STUTTGART      MOCLDY    51  46  83 S12       29.81S
MONTICELLO     MOCLDY    54  43  66 SW7       29.86R

$$





USA.gov is the U.S. government's official web portal to all federal, state and local government web resources and services.